Terminal Aerodrome Forecast
Issued by NWS St Louis, MO

Home | Current Version | Previous Version | Text Only | Print | Product List | Glossary On
Versions: 1 2 3 4 5 6 7 8 9 10 11 12 13 14 15 16 17 18 19 20 21 22 23 24 25 26
000
FTUS43 KLSX 241600 AAA
TAFCOU
TAF AMD
KCOU 241616Z 2416/2512 30009KT 5SM -RA BR OVC008
     FM241800 30012G18KT P6SM OVC012
     FM242300 26009KT P6SM OVC020
     FM250600 21007KT P6SM SCT020=

USA.gov is the U.S. government's official web portal to all federal, state and local government web resources and services.